Other Public Products
Issued by NWS Grand Forks, ND

Home | Current Version | Previous Version | Text Only | Print | Product List | Glossary On
Versions: 1 2 3 4 5 6 7 8 9 10 11 12 13 14 15 16 17 18 19 20 21 22 23 24 25 26 27 28 29 30 31 32 33 34 35 36 37 38 39 40 41 42 43 44 45 46 47 48 49 50
000
FPUS83 KFGF 291631
OPUFGF
PRAIRIE TO PINES WEATHER ROUNDUP
NATIONAL WEATHER SERVICE EASTERN NORTH DAKOTA/GRAND FORKS ND
1100 AM CDT WED MAR 29 2017

 **SATELLITE DATA USED TO AUGMENT SKY COVER AT AUTOMATED STATIONS**
 *****  WEATHER ACROSS EASTERN NORTH DAKOTA  *****

CITY           SKY/WX    TMP DP  RH WIND       PRES   REMARKS
GRAND FORKS    FAIR      45  37  73 SE12      30.15F
GRAND FORKS AF FAIR      48  38  69 S6        30.14F
GRAND CITY NWS NOT AVBL
BUXTON         NOT AVBL
DEVILS LAKE    FAIR      51  39  63 S12       30.11F
FARGO          FAIR      49  37  63 SE9       30.17S
WAHPETON ARPT    N/A     46  36  66 SE8       30.18F
$$

 *****  WEATHER ACROSS CENTRAL AND WESTERN NORTH DAKOTA  *****

CITY           SKY/WX    TMP DP  RH WIND       PRES   REMARKS
JAMESTOWN      FAIR      49  39  68 S5        30.13F
BISMARCK       FAIR      53  42  66 SW3       30.12S
MINOT          CLOUDY    50  43  77 S9        30.05S
MINOT AFB      CLOUDY    48  43  85 S12       30.03F
GARRISON         N/A     49  41  74 SW13      30.06F
WILLISTON      FAIR      45  41  86 SW9       30.02F
DICKINSON      CLOUDY    45  42  89 SW14      30.05S
HETTINGER      PTSUNNY   46  40  79 SW14      30.10S
$$

 *****  OTHER OBSERVATIONS NORTHEAST NORTH DAKOTA  *****

CITY           SKY/WX    TMP DP  RH WIND       PRES   REMARKS
WALHALLA       NOT AVBL
LANGDON        FAIR      46  43  87 S10       30.10F
CAVALIER       FAIR      43  37  81 S7        30.12S
GRAFTON        FAIR      46  41  81 SE9       30.15F
CANDO          NOT AVBL
FORT TOTTEN      N/A     51  43  72 S9        29.95S
ROLLA          FAIR      39  39 100 SW15      30.07F
RUGBY          NOT AVBL
 ***** THE ABOVE OBSERVATIONS ARE NON NWS ARE NOT QUALITY
        CONTROLLED AND MAY MIS-REPORT RAIN FOR SNOW...
$$

 *****  OTHER OBSERVATIONS SOUTHEAST NORTH DAKOTA *****

CITY           SKY/WX    TMP DP  RH WIND       PRES   REMARKS
COOPERSTOWN    FAIR      50  45  81 S8        30.15S
VALLEY CITY    FAIR      50  43  76 S7        30.16S
OAKES          NOT AVBL
GWINNER        SUNNY     50  43  76 MISG      30.15F
SHEYENNE NWR     N/A     46  40  78 SE3       29.95S
BUFFALO        NOT AVBL
WYNDMERE         N/A     48  39  71 SE8         N/A
 ***** THE ABOVE OBSERVATIONS ARE NON NWS ARE NOT QUALITY
       CONTROLLED AND MAY MIS-REPORT RAIN FOR SNOW...
$$

  *****  WEATHER ACROSS NORTHERN MINNESOTA  *****

CITY           SKY/WX    TMP DP  RH WIND       PRES   REMARKS
FLAG ISLAND    FAIR      36  28  75 SE7       30.20F
WARROAD        FAIR      43  34  70 NE6       30.19F
ROSEAU         FAIR      50  36  57 S8        30.17F
HALLOCK        FAIR      46  39  76 S13       30.14F
THF RVR FALLS  FAIR      46  33  60 S12       30.18S
HALSTAD          N/A     49  37  63 S12         N/A
FOSSTON        FAIR      48  34  57 SE7       30.18S
BAUDETTE       FAIR      42  28  57 SE9       30.21S
WASKISH        CLOUDY    46  30  53 SE7       30.21F
CROOKSTON      FAIR      48  37  66 S12       30.17F
$$
  *****  WEATHER ACROSS CENTRAL AND WEST MINNESOTA  *****

CITY           SKY/WX    TMP DP  RH WIND       PRES   REMARKS
BEMIDJI        FAIR      41  29  63 SE9       30.21F
PARK RAPIDS    FAIR      42  27  55 E8        30.21S
WADENA         FAIR      43  30  61 E7        30.21S
DETROIT LAKES  FAIR      45  32  61 SE10      30.20S
MOORHEAD       FAIR      48  37  66 S8        30.18S
FERGUS FALLS   FAIR      50  34  53 SE9       30.21F
ELBOW LAKE     FAIR      49  34  56 SE7       30.19S
MORRIS MN      FAIR      52  36  54 SE8       30.18F
STAPLES        FAIR      43  30  61 SE5       30.22S
WHEATON        FAIR      48  37  66 SE9       30.19F
$$
  *****  WEATHER ELSEWHERE ACROSS MINNESOTA  *****

CITY           SKY/WX    TMP DP  RH WIND       PRES   REMARKS
DULUTH         FAIR      36  30  79 E15       30.30S
INTRNTL FALLS  FAIR      40  26  57 SE8       30.25F
ELY            FAIR      39  27  60 SE8       30.29F
CLOQUET        FAIR      36  28  75 E13G18    30.29F
BRAINERD       FAIR      41  30  65 VRB5      30.24S
HIBBING        FAIR      37  28  70 SE13      30.27S
ALEXANDRIA     FAIR      45  32  60 SE9       30.21S
SAINT CLOUD    FAIR      42  33  70 E3        30.24S
MINNEAPOLIS    CLOUDY    50  32  50 SE13      30.25R
$$

  *****  WEATHER ACROSS SOUTH DAKOTA  *****

CITY           SKY/WX    TMP DP  RH WIND       PRES   REMARKS
SIOUX FALLS    CLOUDY    49  40  71 E16G23    30.14F
BROOKINGS      FAIR      51  38  60 SE16      30.15S
WATERTOWN      FAIR      53  37  54 SE9       30.15F
HURON          FAIR      56  39  53 MISG      30.14S
SISSETON         N/A     49  41  74 S6        30.16S
ABERDEEN       FAIR      51  36  56 CALM      30.15F
MITCHELL       PTSUNNY   52  40  63 SE17      30.14S
PIERRE         FAIR      53  43  68 N8        30.11F
MOBRIDGE       PTSUNNY   52  42  69 VRB5      30.10S
RAPID CITY     PTSUNNY   48  42  80 NE5       30.09S
$$

  *****  SOME WEATHER IN NEARBY STATES *****

CITY           SKY/WX    TMP DP  RH WIND       PRES   REMARKS
GLASGOW MT     FAIR      48  31  51 SW6       30.01S
GREAT FALLS MT PTSUNNY   45  28  51 SW18G24   30.02S
CHEYENNE WY    PTSUNNY   40  33  76 N14G20    30.10F
SCOTTSBLUFF NE CLOUDY    46  40  79 NW8       30.11S
OMAHA NE       LGT RAIN  45  40  82 E22       29.98F
DES MOINES IA  LGT RAIN  43  40  89 E13       30.05F FOG
DAVENPORT IA   LGT RAIN  42  39  89 E21       30.15F FOG
CHICAGO IL     CLOUDY    46  36  68 NE14      30.24S
EAU CLAIRE WI  FAIR      44  30  57 E7        30.27S
LA CROSSE WI   CLOUDY    44  34  67 E9        30.27R
$$

  *****  SOME NATIONAL WEATHER *****

CITY           SKY/WX    TMP DP  RH WIND       PRES   REMARKS
LA GUARDIA NY  FAIR      51  36  56 N13       30.07F
RALEIGH NC     PTSUNNY   66  52  60 NE10G18   30.10S
ATLANTA GA     FAIR      75  55  49 SE6       30.07S
NEW ORLEANS LA PTSUNNY   78  66  66 S12       30.01R
OKLAHOMA CITY  CLOUDY    54  53  97 W10       29.67R FOG
ALBUQUERQUE NM CLOUDY    48  37  65 NW14      30.01R
SALT LAKE CITY FAIR      44  31  60 SE6       30.26R
LOS ANGELES CA FAIR      64  54  69 CALM      30.04S
BOISE ID       CLOUDY    49  32  52 SE17      30.16F
SEATTLE WA     LGT RAIN  48  47  96 SE15      29.82F FOG
$$

*** WEATHER ACROSS MANITOBA...SASKATCHEWAN AND ONTARIO ***
                ***ONTARIO***

CITY           SKY/WX    TMP DP  RH WIND       PRES   REMARKS
GERALDTON      CLOUDY    30  18  59 E6        30.43F WCI  24
THUNDER BAY    CLOUDY    36  28  75 E13       30.42F
SIOUX LOOKOUT  PTSUNNY   36  21  55 S7        30.28F
TORONTO        PTSUNNY   45  30  57 NW2       30.28S
BIG TROUT LK   PTSUNNY   27  16  63 SE5       30.40F WCI  21
PICKLE LAKE    PTSUNNY   32  18  55 S10       30.36F WCI  24
DRYDEN         SUNNY     37  25  60 SE10      30.26F
KENORA         MOSUNNY   43  27  52 SE7       30.21F
$$
                *** MANITOBA***

CITY           SKY/WX    TMP DP  RH WIND       PRES   REMARKS
BRANDON        CLOUDY    36  34  93 E2        30.05F
DAUPHIN        MOSUNNY   36  30  80 SE5       30.03F
ISLAND LAKE    PTSUNNY   32  21  64 E5        30.24
PILOT MOUND      N/A     43  39  87 S13         N/A
THE PAS        DRIZZLE   32  28  86 SE12      30.03F WCI  23
THOMPSON       CLOUDY    27  14  59 SE3       30.17F
WINNIPEG       PTSUNNY   46  34  61 S14G21    30.12F
LYNN LAKE      FLURRIES  28  19  69 SE8       30.06F WCI  20
CHURCHILL      PTSUNNY   16   7  67 S8        30.31F WCI   5
GILLAM         PTSUNNY   34  16  47 SE6       30.26F
$$
                ***SASKATCHEWAN***

CITY           SKY/WX    TMP DP  RH WIND       PRES   REMARKS
ESTEVAN        CLOUDY    43  39  87 S8        29.98F
KINDERSLEY     MOSUNNY   45  30  57 W5        29.85R
LLOYDMINSTER   FOG       34  34 100 VRB2      29.86S VSB 5/8
PRINCE ALBERT  LGT RAIN  36  34  93 E8        29.88S FOG
REGINA         PTSUNNY   45  34  65 SW8       29.91S
YORKTON        PTSUNNY   36  36 100 S8        29.95S



USA.gov is the U.S. government's official web portal to all federal, state and local government web resources and services.